Starlink 31913

operational
NORAD ID: 59667 Int'l Des: 2024-084 Owner: SPXS Country: US Constellation: starlink
LEOCIRCULAR

Starlink 31913について

説明を読み込み中...

リアルタイム位置

3D地球を読み込み中...

次回通過

高度履歴

Altitude vs Time

uPlot chart will show altitude changes over time

軌道要素

1 59667U 24084P 25305.58592315 -.00001341 00000-0 -39237-4 0 9993
2 59667 43.0006 41.6025 0001263 261.4963 98.5746 15.27570681 84822
Epoch: Nov 1, 2025 • Age: 12 hours

現在のステータス

高度 482.9 km
速度 7.63 km/s
衛星直下点 20.78°N, 127.97°E
打ち上げ日 May 6, 2024
運用期間 1.4 years
タイプ internet

技術仕様

分類 Payload
質量 730.00 kg
乾燥質量 700.00 kg
総質量 730.00 kg
長さ 0.30 m
直径 4.10 m
スパン 29.00 m
形状 Box + pan
製造者 SPXS
バスタイプ Starlink V2M
フェーズステータス In Orbit
所有者/国 SPXS/US

大規模コンステレーション

Loading constellations...